{"data":{"norad_id":67643,"epoch":"2026-09-19T00:37:04.939968Z","epoch_age_seconds":196690,"freshness":"STALE","line1":"1 67643U 26020AC  26262.02575162  .00016487  00000+0  60711-3 0  9995","line2":"2 67643  43.0018 127.7665 0000715   6.9418 353.1444 15.27590462 35686","mean_motion":15.27590462,"eccentricity":7.15e-5,"inclination_deg":43.0018,"raan_deg":127.7665,"arg_perigee_deg":6.9418,"mean_anomaly_deg":353.1444,"bstar":0.00060711,"rev_number":3568,"period_min":94.266103109513,"perigee_km":482.52719666076,"apogee_km":483.50834179276,"semimajor_km":6861.1547692268,"source":"CELESTRAK","updated_at":"2026-09-20T09:00:43.616863Z"}}